IQ1GE Weather Reports


Display with metric or nautical units.
time (UTC)temp
F
wind
direction
speed
MPH
gust
MPH
rain 1hr
in
rain 24hr
in
rain mn
in
humidity
%
barometer
mb
20260906134932 87 249 0.0 0.0 0.00 0.00 0.00 72 1022.0
20260906134432 87 226 0.0 0.0 0.00 0.00 0.00 71 1022.0
20260906133929 87 187 0.0 0.0 0.00 0.00 0.00 70 1022.1
20260906133432 87 222 0.0 0.0 0.00 0.00 0.00 71 1022.1
20260906132935 87 224 0.0 0.0 0.00 0.00 0.00 71 1022.1
20260906132429 87 171 0.0 0.0 0.00 0.00 0.00 71 1022.2
20260906131929 87 244 0.0 0.0 0.00 0.00 0.00 72 1022.2
20260906131432 87 230 0.0 0.0 0.00 0.00 0.00 72 1022.1
20260906130932 87 224 0.0 0.0 0.00 0.00 0.00 71 1022.2
20260906130429 86 229 0.0 0.0 0.00 0.00 0.00 72 1022.2
20260906125929 86 233 0.0 0.0 0.00 0.00 0.00 72 1022.2
20260906125429 87 207 0.0 0.0 0.00 0.00 0.00 71 1022.2
20260906124935 87 212 0.0 0.0 0.00 0.00 0.00 71 1022.2
20260906124429 87 221 0.0 0.0 0.00 0.00 0.00 71 1022.2
20260906123932 87 196 0.0 0.0 0.00 0.00 0.00 70 1022.2
20260906123429 87 248 0.0 0.0 0.00 0.00 0.00 70 1022.1
20260906122930 87 213 0.0 0.0 0.00 0.00 0.00 70 1022.0
20260906122433 87 245 0.0 0.0 0.00 0.00 0.00 71 1022.1
20260906121929 87 191 0.0 0.0 0.00 0.00 0.00 72 1022.1
20260906121433 86 164 0.0 0.0 0.00 0.00 0.00 73 1022.1
20260906120929 85 225 0.0 0.0 0.00 0.00 0.00 74 1022.1
20260906120430 85 237 0.0 0.0 0.00 0.00 0.00 74 1022.1
20260906115936 85 240 0.0 0.0 0.00 0.00 0.00 74 1022.1
20260906115429 85 201 0.0 0.0 0.00 0.00 0.00 74 1022.1
20260906114933 85 217 0.0 0.0 0.00 0.00 0.00 75 1022.2
20260906114430 85 173 0.0 0.0 0.00 0.00 0.00 75 1022.3
20260906113936 84 187 0.0 0.0 0.00 0.00 0.00 76 1022.2
20260906113430 84 235 0.0 0.0 0.00 0.00 0.00 76 1022.2
20260906112933 85 222 0.0 0.0 0.00 0.00 0.00 74 1022.2
20260906112430 85 238 0.0 0.0 0.00 0.00 0.00 75 1022.0
20260906111933 85 242 0.0 0.0 0.00 0.00 0.00 75 1022.0
20260906111436 85 221 0.0 0.0 0.00 0.00 0.00 75 1022.0
20260906110930 84 222 0.0 0.0 0.00 0.00 0.00 76 1022.0
20260906110430 84 226 0.0 0.0 0.00 0.00 0.00 76 1022.0
20260906105930 84 237 0.0 0.0 0.00 0.00 0.00 76 1022.1
20260906105433 83 220 0.0 0.0 0.00 0.00 0.00 76 1022.1
20260906104930 84 239 0.0 0.0 0.00 0.00 0.00 76 1022.1
20260906104430 84 231 0.0 0.0 0.00 0.00 0.00 76 1022.2
20260906103930 83 204 0.0 0.0 0.00 0.00 0.00 77 1022.2
20260906103433 84 231 0.0 0.0 0.00 0.00 0.00 76 1022.2
20260906102930 84 226 0.0 0.0 0.00 0.00 0.00 76 1022.2
20260906102433 84 241 0.0 0.0 0.00 0.00 0.00 76 1022.2
20260906101930 84 202 0.0 0.0 0.00 0.00 0.00 75 1022.3
20260906101430 85 222 0.0 0.0 0.00 0.00 0.00 74 1022.3
20260906100933 85 213 0.0 0.0 0.00 0.00 0.00 73 1022.3
20260906100436 85 210 0.0 0.0 0.00 0.00 0.00 73 1022.3
20260906095930 85 173 0.0 0.0 0.00 0.00 0.00 73 1022.4
20260906095430 86 206 0.0 0.0 0.00 0.00 0.00 72 1022.3
20260906094930 86 211 0.0 0.0 0.00 0.00 0.00 71 1022.3
20260906094433 86 208 0.0 0.0 0.00 0.00 0.00 70 1022.4
20260906093930 86 251 0.0 0.0 0.00 0.00 0.00 71 1022.4
20260906093433 85 206 0.0 0.0 0.00 0.00 0.00 72 1022.4
20260906092930 84 206 0.0 0.0 0.00 0.00 0.00 71 1022.4
20260906092430 84 204 0.0 0.0 0.00 0.00 0.00 71 1022.5
20260906091936 84 204 0.0 0.0 0.00 0.00 0.00 71 1022.5
20260906091439 84 204 0.0 0.0 0.00 0.00 0.00 71 1022.4
20260906090933 84 201 0.0 0.0 0.00 0.00 0.00 71 1022.5
20260906090436 84 205 0.0 0.0 0.00 0.00 0.00 70 1022.4
20260906085933 84 206 0.0 0.0 0.00 0.00 0.00 70 1022.5
20260906085430 84 208 0.0 0.0 0.00 0.00 0.00 69 1022.4
20260906084933 84 217 0.0 0.0 0.00 0.00 0.00 69 1022.4
20260906084436 83 212 0.0 0.0 0.00 0.00 0.00 70 1022.3
20260906083930 83 212 0.0 0.0 0.00 0.00 0.00 70 1022.3
20260906083430 83 212 0.0 0.0 0.00 0.00 0.00 71 1022.3
20260906082933 82 212 0.0 0.0 0.00 0.00 0.00 72 1022.3
20260906082430 82 212 0.0 0.0 0.00 0.00 0.00 72 1022.3
20260906081930 82 212 0.0 0.0 0.00 0.00 0.00 73 1022.2
20260906081433 82 214 0.0 0.0 0.00 0.00 0.00 74 1022.2
20260906080936 82 214 0.0 0.0 0.00 0.00 0.00 74 1022.3
20260906080439 82 212 0.0 0.0 0.00 0.00 0.00 75 1022.2
20260906075930 82 212 0.0 0.0 0.00 0.00 0.00 75 1022.2
20260906075433 82 216 0.0 0.0 0.00 0.00 0.00 75 1022.2
20260906074936 82 216 0.0 0.0 0.00 0.00 0.00 75 1022.1
20260906074439 82 218 0.0 0.0 0.00 0.00 0.00 74 1022.1
20260906073930 81 166 0.0 0.0 0.00 0.00 0.00 73 1022.1
20260906073430 81 149 0.0 0.0 0.00 0.00 0.00 73 1022.1
20260906072933 81 148 0.0 0.0 0.00 0.00 0.00 74 1022.1
20260906072436 80 148 0.0 0.0 0.00 0.00 0.00 75 1022.0
20260906071930 80 148 0.0 0.0 0.00 0.00 0.00 79 1021.9
20260906071433 80 104 0.0 0.0 0.00 0.00 0.00 79 1021.9
20260906070933 79 104 0.0 0.0 0.00 0.00 0.00 80 1021.9
20260906070436 79 103 0.0 0.0 0.00 0.00 0.00 81 1021.9
20260906065930 78 103 0.0 0.0 0.00 0.00 0.00 82 1021.9
20260906065430 78 104 0.0 0.0 0.00 0.00 0.00 81 1022.0
20260906064930 78 103 0.0 0.0 0.00 0.00 0.00 81 1022.0
20260906064430 78 103 0.0 0.0 0.00 0.00 0.00 81 1022.0
20260906063933 77 105 0.0 0.0 0.00 0.00 0.00 81 1022.0
20260906063439 77 96 0.0 0.0 0.00 0.00 0.00 81 1022.0
20260906062930 77 105 0.0 0.0 0.00 0.00 0.00 81 1021.9
20260906062430 77 112 0.0 0.0 0.00 0.00 0.00 81 1021.8
20260906061933 77 107 0.0 0.0 0.00 0.00 0.00 82 1021.8
20260906061436 76 83 0.0 0.0 0.00 0.00 0.00 82 1021.8
20260906060939 76 100 0.0 0.0 0.00 0.00 0.00 82 1021.7
20260906060430 76 75 0.0 0.0 0.00 0.00 0.00 81 1021.7
20260906055930 76 77 0.0 0.0 0.00 0.00 0.00 81 1021.6
20260906055430 76 81 0.0 0.0 0.00 0.00 0.00 81 1021.6
20260906054936 76 94 0.0 0.0 0.00 0.00 0.00 81 1021.6
20260906054430 76 85 0.0 0.0 0.00 0.00 0.00 82 1021.5
20260906053933 76 94 0.0 0.0 0.00 0.00 0.00 83 1021.5
20260906053430 76 108 0.0 0.0 0.00 0.00 0.00 82 1021.5
20260906052933 76 76 0.0 0.0 0.00 0.00 0.00 82 1021.3
20260906052436 76 76 0.0 0.0 0.00 0.00 0.00 82 1021.3
20260906051930 76 89 0.0 0.0 0.00 0.00 0.00 82 1021.3
20260906051433 76 93 0.0 0.0 0.00 0.00 0.00 83 1021.3
20260906050930 76 81 0.0 0.0 0.00 0.00 0.00 83 1021.2
20260906050430 75 108 0.0 0.0 0.00 0.00 0.00 84 1021.1
20260906045936 75 64 0.0 0.0 0.00 0.00 0.00 84 1021.0
20260906045430 75 103 0.0 0.0 0.00 0.00 0.00 85 1021.0
20260906044930 75 89 0.0 0.0 0.00 0.00 0.00 84 1021.0
20260906044433 75 123 0.0 0.0 0.00 0.00 0.00 85 1020.9
20260906043933 76 110 0.0 0.0 0.00 0.00 0.00 86 1020.8
20260906043430 76 82 0.0 0.0 0.00 0.00 0.00 87 1020.9
20260906042933 76 95 0.0 0.0 0.00 0.00 0.00 87 1020.9
20260906042430 76 81 0.0 0.0 0.00 0.00 0.00 87 1020.9
20260906041933 76 81 0.0 0.0 0.00 0.00 0.00 87 1020.9
20260906041430 76 81 0.0 0.0 0.00 0.00 0.00 86 1020.8
20260906040933 76 81 0.0 0.0 0.00 0.00 0.00 86 1020.7
20260906040433 76 82 0.0 0.0 0.00 0.00 0.00 86 1020.7
20260906035930 76 82 0.0 0.0 0.00 0.00 0.00 86 1020.7
20260906035433 76 90 0.0 0.0 0.00 0.00 0.00 86 1020.7
20260906034936 76 87 0.0 0.0 0.00 0.00 0.00 85 1020.7
20260906034433 76 98 0.0 0.0 0.00 0.00 0.00 85 1020.5
20260906033930 76 88 0.0 0.0 0.00 0.00 0.00 85 1020.5
20260906033430 76 101 0.0 0.0 0.00 0.00 0.00 85 1020.4
20260906032936 76 84 0.0 0.0 0.00 0.00 0.00 85 1020.4
20260906032430 76 97 0.0 0.0 0.00 0.00 0.00 85 1020.4
20260906031930 76 107 0.0 0.0 0.00 0.00 0.00 85 1020.4
20260906031430 76 100 0.0 0.0 0.00 0.00 0.00 86 1020.5
20260906030930 76 99 0.0 0.0 0.00 0.00 0.00 85 1020.5
20260906030433 76 98 0.0 0.0 0.00 0.00 0.00 86 1020.5
20260906025930 76 102 0.0 0.0 0.00 0.00 0.00 86 1020.4
20260906025436 76 110 0.0 0.0 0.00 0.00 0.00 86 1020.4
20260906024933 76 110 0.0 0.0 0.00 0.00 0.00 86 1020.4
20260906024431 76 84 0.0 0.0 0.00 0.00 0.00 86 1020.3
20260906023933 76 85 0.0 0.0 0.00 0.00 0.00 86 1020.4
20260906023433 76 104 0.0 0.0 0.00 0.00 0.00 86 1020.3
20260906022930 76 107 0.0 0.0 0.00 0.00 0.00 86 1020.4
20260906022436 76 80 0.0 0.0 0.00 0.00 0.00 86 1020.4
20260906021930 76 87 0.0 0.0 0.00 0.00 0.00 87 1020.4
20260906021430 76 91 0.0 0.0 0.00 0.00 0.00 86 1020.4
20260906020933 76 77 0.0 0.0 0.00 0.00 0.00 87 1020.4
20260906020428 76 92 0.0 0.0 0.00 0.00 0.00 87 1020.3
20260906015931 76 114 0.0 0.0 0.00 0.00 0.00 87 1020.4
20260906015428 77 100 0.0 0.0 0.00 0.00 0.00 87 1020.4
20260906014928 77 122 0.0 0.0 0.00 0.00 0.00 87 1020.5
20260906014431 77 87 0.0 0.0 0.00 0.00 0.00 87 1020.5
20260906013928 77 101 0.0 0.0 0.00 0.00 0.00 87 1020.5
20260906013434 77 95 0.0 0.0 0.00 0.00 0.00 87 1020.5
20260906012937 77 83 0.0 0.0 0.00 0.00 0.00 87 1020.5
20260906012428 77 84 0.0 0.0 0.00 0.00 0.00 87 1020.5
20260906011928 77 113 0.0 0.0 0.00 0.00 0.00 87 1020.6
20260906011428 77 96 0.0 0.0 0.00 0.00 0.00 87 1020.6
20260906010931 77 87 0.0 0.0 0.00 0.00 0.00 87 1020.5
20260906010434 77 89 0.0 0.0 0.00 0.00 0.00 86 1020.5
20260906005928 77 95 0.0 0.0 0.00 0.00 0.00 86 1020.4
20260906005428 77 113 0.0 0.0 0.00 0.00 0.00 87 1020.5
20260906004928 77 110 0.0 0.0 0.00 0.00 0.00 87 1020.5
20260906004428 77 110 0.0 0.0 0.00 0.00 0.00 87 1020.5
20260906003928 77 112 0.0 0.0 0.00 0.00 0.00 86 1020.5
20260906003431 77 107 0.0 0.0 0.00 0.00 0.00 87 1020.5
20260906002928 77 107 0.0 0.0 0.00 0.00 0.00 86 1020.5
20260906002431 77 124 0.0 0.0 0.00 0.00 0.00 86 1020.5
20260906001934 77 84 0.0 0.0 0.00 0.00 0.00 87 1020.5
20260906001428 77 100 0.0 0.0 0.00 0.00 0.00 87 1020.5
20260906000931 77 84 0.0 0.0 0.00 0.00 0.00 87 1020.6
20260906000428 77 90 0.0 0.0 0.00 0.00 0.00 87 1020.6
20260905235928 77 89 0.0 0.0 0.00 0.00 0.00 87 1020.6
20260905235428 77 83 0.0 0.0 0.00 0.00 0.00 87 1020.7
20260905234931 77 92 0.0 0.0 0.00 0.00 0.00 87 1020.6
20260905234434 77 95 0.0 0.0 0.00 0.00 0.00 87 1020.7
20260905233928 77 87 0.0 0.0 0.00 0.00 0.00 87 1020.6
20260905233428 77 82 0.0 0.0 0.00 0.00 0.00 87 1020.7
20260905232928 77 98 0.0 0.0 0.00 0.00 0.00 87 1020.7
20260905232428 77 94 0.0 0.0 0.00 0.00 0.00 87 1020.7
20260905231928 77 89 0.0 0.0 0.00 0.00 0.00 87 1020.8
20260905231431 77 120 0.0 0.0 0.00 0.00 0.00 87 1020.8
20260905230934 77 107 0.0 0.0 0.00 0.00 0.00 87 1020.8
20260905230428 77 97 0.0 0.0 0.00 0.00 0.00 86 1020.9
20260905225931 77 106 0.0 0.0 0.00 0.00 0.00 86 1020.8
20260905225428 78 52 0.0 0.0 0.00 0.00 0.00 86 1020.8
20260905224928 78 104 0.0 0.0 0.00 0.00 0.00 86 1020.8
20260905224434 78 116 0.0 0.0 0.00 0.00 0.00 86 1020.8
20260905223928 78 106 0.0 0.0 0.00 0.00 0.00 85 1020.8
20260905223431 78 75 0.0 0.0 0.00 0.00 0.00 85 1020.8
20260905222928 78 77 0.0 0.0 0.00 0.00 0.00 85 1020.8
20260905222429 78 74 0.0 0.0 0.00 0.00 0.00 85 1020.8
20260905221928 78 75 0.0 0.0 0.00 0.00 0.00 85 1020.7
20260905221428 78 90 0.0 0.0 0.00 0.00 0.00 85 1020.8
20260905220931 78 83 0.0 0.0 0.00 0.00 0.00 84 1020.8
20260905220428 78 68 0.0 0.0 0.00 0.00 0.00 84 1020.8
20260905215931 78 68 0.0 0.0 0.00 0.00 0.00 84 1020.7
20260905215434 78 68 0.0 0.0 0.00 0.00 0.00 84 1020.7
20260905214928 78 68 0.0 0.0 0.00 0.00 0.00 84 1020.7
20260905214428 78 68 0.0 0.0 0.00 0.00 0.00 84 1020.7
20260905213931 79 68 0.0 0.0 0.00 0.00 0.00 84 1020.6
20260905213428 79 68 0.0 0.0 0.00 0.00 0.00 84 1020.5
20260905212931 79 68 0.0 0.0 0.00 0.00 0.00 84 1020.5
20260905212428 79 72 0.0 0.0 0.00 0.00 0.00 83 1020.5
20260905211928 79 68 0.0 0.0 0.00 0.00 0.00 83 1020.4
20260905211431 79 69 0.0 0.0 0.00 0.00 0.00 83 1020.4
20260905210931 79 68 0.0 0.0 0.00 0.00 0.00 83 1020.3
20260905210434 79 68 0.0 0.0 0.00 0.00 0.00 83 1020.4
20260905205931 79 68 0.0 0.0 0.00 0.00 0.00 83 1020.3
20260905205434 79 69 0.0 0.0 0.00 0.00 0.00 83 1020.4
20260905204928 79 69 0.0 0.0 0.00 0.00 0.00 83 1020.4
20260905204431 79 68 0.0 0.0 0.00 0.00 0.00 82 1020.4
20260905203931 79 70 0.0 0.0 0.00 0.00 0.00 82 1020.4
20260905203428 79 77 0.0 0.0 0.00 0.00 0.00 82 1020.3
20260905202931 79 68 0.0 0.0 0.00 0.00 0.00 82 1020.3
20260905202428 79 69 0.0 0.0 0.00 0.00 0.00 82 1020.3
20260905201934 79 69 0.0 0.0 0.00 0.00 0.00 82 1020.3
20260905201428 79 69 0.0 0.0 0.00 0.00 0.00 82 1020.3
20260905200928 79 70 0.0 0.0 0.00 0.00 0.00 82 1020.2
20260905200431 79 243 0.0 0.0 0.00 0.00 0.00 81 1020.2
20260905195934 79 242 0.0 0.0 0.00 0.00 0.00 81 1020.2
20260905195428 79 241 0.0 0.0 0.00 0.00 0.00 81 1020.2
20260905194931 79 242 0.0 0.0 0.00 0.00 0.00 81 1020.2
20260905194428 80 242 0.0 0.0 0.00 0.00 0.00 81 1020.1
20260905193931 80 206 0.0 0.0 0.00 0.00 0.00 81 1020.1
20260905193428 80 206 0.0 0.0 0.00 0.00 0.00 80 1020.2
20260905192931 80 207 0.0 0.0 0.00 0.00 0.00 80 1020.1
20260905192428 80 204 0.0 0.0 0.00 0.00 0.00 80 1020.1
20260905191928 80 204 0.0 0.0 0.00 0.00 0.00 81 1020.1
20260905191431 80 204 0.0 0.0 0.00 0.00 0.00 81 1020.1
20260905190934 80 204 0.0 0.0 0.00 0.00 0.00 81 1020.0
20260905190437 80 204 0.0 0.0 0.00 0.00 0.00 81 1020.0
20260905185928 80 204 0.0 0.0 0.00 0.00 0.00 81 1020.0
20260905185431 80 204 0.0 0.0 0.00 0.00 0.00 81 1019.9
20260905184928 80 204 0.0 0.0 0.00 0.00 0.00 81 1019.8
20260905184431 80 204 0.0 0.0 0.00 0.00 0.00 81 1019.8
20260905183934 81 204 0.0 0.0 0.00 0.00 0.00 81 1019.7
20260905183428 81 206 0.0 0.0 0.00 0.00 0.00 81 1019.6
20260905182931 81 200 0.0 0.0 0.00 0.00 0.00 81 1019.5
20260905182428 81 201 0.0 0.0 0.00 0.00 0.00 81 1019.5
20260905181934 81 201 0.0 0.0 0.00 0.00 0.00 81 1019.5
20260905181428 81 201 0.0 0.0 0.00 0.00 0.00 81 1019.4
20260905180928 81 224 0.0 0.0 0.00 0.00 0.00 81 1019.4
20260905180431 81 233 0.0 0.0 0.00 0.00 0.00 81 1019.4
20260905175928 81 235 0.0 0.0 0.00 0.00 0.00 81 1019.4
20260905175428 81 208 0.0 0.0 0.00 0.00 0.00 80 1019.4
20260905174928 81 212 0.0 0.0 0.00 0.00 0.00 80 1019.4
20260905174431 81 206 0.0 0.0 0.00 0.00 0.00 80 1019.4
20260905173937 81 214 0.0 0.0 0.00 0.00 0.00 80 1019.3
20260905173428 81 215 0.0 0.0 0.00 0.00 0.00 80 1019.4
20260905172934 81 245 0.0 0.0 0.00 0.00 0.00 80 1019.3
20260905172434 81 245 0.0 0.0 0.00 0.00 0.00 79 1019.3
20260905171928 82 200 0.0 0.0 0.00 0.00 0.00 79 1019.3
20260905171428 82 214 0.0 0.0 0.00 0.00 0.00 79 1019.2
20260905170937 82 219 0.0 0.0 0.00 0.00 0.00 79 1019.2
20260905170434 82 220 0.0 0.0 0.00 0.00 0.00 78 1019.2
20260905165928 82 196 0.0 0.0 0.00 0.00 0.00 78 1019.2
20260905165428 82 196 0.0 0.0 0.00 0.00 0.00 78 1019.2
20260905164928 82 233 0.0 0.0 0.00 0.00 0.00 78 1019.2
20260905164432 82 216 0.0 0.0 0.00 0.00 0.00 78 1019.2
20260905163928 82 228 0.0 0.0 0.00 0.00 0.00 77 1019.2
20260905163428 82 229 0.0 0.0 0.00 0.00 0.00 77 1019.2
20260905162931 82 224 0.0 0.0 0.00 0.00 0.00 77 1019.2
20260905162432 82 183 0.0 0.0 0.00 0.00 0.00 77 1019.2
20260905161935 82 216 0.0 0.0 0.00 0.00 0.00 76 1019.2
20260905161428 83 122 0.0 0.0 0.00 0.00 0.00 76 1019.3
20260905160935 83 233 0.0 0.0 0.00 0.00 0.00 76 1019.3
20260905160429 83 220 0.0 0.0 0.00 0.00 0.00 76 1019.2
20260905155929 83 216 0.0 0.0 0.00 0.00 0.00 76 1019.2
20260905155431 83 221 0.0 0.0 0.00 0.00 0.00 76 1019.3
20260905154935 83 210 0.0 0.0 0.00 0.00 0.00 76 1019.3
20260905154435 83 237 0.0 0.0 0.00 0.00 0.00 77 1019.4
20260905153929 82 253 0.0 0.0 0.00 0.00 0.00 77 1019.4
20260905153429 82 244 0.0 0.0 0.00 0.00 0.00 77 1019.3
20260905152935 82 229 0.0 0.0 0.00 0.00 0.00 77 1019.4
20260905152432 82 174 0.0 0.0 0.00 0.00 0.00 78 1019.4
20260905151932 82 237 0.0 0.0 0.00 0.00 0.00 77 1019.5
20260905151438 82 196 0.0 0.0 0.00 0.00 0.00 76 1019.5
20260905150929 83 251 0.0 0.0 0.00 0.00 0.00 76 1019.5
20260905150429 82 203 0.0 0.0 0.00 0.00 0.00 77 1019.5
20260905145929 82 241 0.0 0.0 0.00 0.00 0.00 76 1019.6
20260905145429 82 203 0.0 0.0 0.00 0.00 0.00 77 1019.6
20260905144929 82 220 0.0 0.0 0.00 0.00 0.00 77 1019.6
20260905144432 82 247 0.0 0.0 0.00 0.00 0.00 76 1019.6
20260905143929 82 228 0.0 0.0 0.00 0.00 0.00 76 1019.6
20260905143432 82 192 0.0 0.0 0.00 0.00 0.00 76 1019.7
20260905142929 83 226 0.0 0.0 0.00 0.00 0.00 76 1019.7
20260905142432 83 204 0.0 0.0 0.00 0.00 0.00 76 1019.7
20260905141929 83 203 0.0 0.0 0.00 0.00 0.00 75 1019.8
20260905141435 83 239 0.0 0.0 0.00 0.00 0.00 75 1019.8
20260905140929 83 205 0.0 0.0 0.00 0.00 0.00 73 1019.8
20260905140429 84 210 0.0 0.0 0.00 0.00 0.00 74 1019.8
20260905135932 84 192 0.0 0.0 0.00 0.00 0.00 73 1019.8
20260905135432 84 220 0.0 0.0 0.00 0.00 0.00 73 1019.8